Theta_e
337 337 336 337 342 345 345 349 352 352 356 357 358 358 359 362 362 355 354 357 362 354 357 354 361 360 360 363 364 363 365 360 358
332 336 336 338 342 345 349 350 352 353 356 358 358 357 360 360 361 360 363 359 359 357 361 356 359 359 360 361 361 364 365 357 360
331 335 336 340 342 346 349 345 353 353 357 358 358 357 359 356 359 360 362 364 362 362 363 363 362 361 359 361 361 363 364 360 362
333 335 336 340 344 348 351 351 351 353 355 356 355 355 357 356 357 358 361 360 362 363 365 365 363 364 362 361 360 362 362 362 360
336 339 338 341 346 347 349 350 349 348 352 354 356 357 358 359 358 359 357 358 360 362 362 364 364 364 364 360 360 362 360 358 357
336 337 341 342 342 340 342 346 348 347 348 351 354 357 356 358 356 357 357 359 358 360 362 362 363 365 363 363 364 363 361 361 359
335 338 340 338 339 339 343 345 343 345 348 351 353 356 356 358 358 358 357 359 361 362 364 361 361 361 362 362 361 363 362 361 361
334 334 336 338 337 339 341 340 340 340 343 343 345 348 350 353 356 358 360 360 361 361 361 360 362 361 361 362 361 359 362 361 360
329 333 334 335 338 340 342 342 339 339 340 341 343 344 345 348 353 353 354 355 356 358 359 360 361 360 360 360 357 336 338 349 360
326 326 327 325 325 325 329 335 339 337 337 343 345 343 344 346 349 347 350 351 353 352 354 356 357 359 360 358 353 323 327 337 359
323 324 324 324 323 323 322 324 327 330 331 333 336 340 341 345 345 337 336 345 349 352 352 354 355 355 354 347 332 317 320 330 360
326 326 323 321 319 319 320 320 323 324 325 326 328 329 334 339 338 331 332 334 338 343 348 348 348 345 342 339 327 313 316 333 360
323 322 320 319 320 317 315 315 317 317 319 322 324 328 333 336 337 337 336 335 338 341 342 342 337 331 327 321 324 311 312 324 347
320 320 318 319 318 316 315 315 316 315 316 316 320 325 327 329 332 333 334 335 338 339 337 337 335 331 328 323 322 314 310 312 329
323 318 315 316 317 315 317 318 318 318 318 321 322 324 324 325 328 329 329 330 330 332 333 331 331 330 327 326 325 309 308 309 310
323 324 323 323 319 318 321 321 322 320 320 321 322 322 323 323 325 326 328 327 327 326 327 326 326 323 324 324 322 320 309 308 310
321 320 319 319 318 317 316 318 318 319 318 319 319 319 319 320 320 321 323 322 323 324 325 323 323 319 317 317 313 308 308 309 313
318 318 317 318 316 316 316 316 316 316 316 317 316 315 315 316 315 317 316 313 311 313 306 305 318 316 316 314 311 302 297 296 302
314 316 316 316 315 315 315 315 314 314 315 315 314 313 312 311 312 312 313 310 307 297 298 296 294 294 300 304 295 294 294 293 293
313 311 312 313 314 315 314 314 313 313 314 313 312 313 310 308 308 310 309 309 308 304 298 296 294 293 293 293 292 293 293 292 293
Wind_Speed
21 20 18 18 16 16 10 15 15 13 13 12 11 9 9 7 5 3 5 9 0 8 8 7 8 8 7 6 7 6 4 5 6
18 18 18 16 17 16 14 17 15 15 12 11 11 11 8 8 7 6 6 3 5 6 4 6 8 8 8 7 7 6 6 6 6
19 14 16 17 15 14 13 9 13 12 13 11 10 11 8 8 7 7 6 6 6 4 4 6 6 9 9 8 7 6 5 6 7
22 26 20 14 14 14 13 13 7 12 10 12 11 10 10 9 8 7 6 6 5 5 7 8 8 8 7 8 8 7 7 5 4
17 17 18 17 13 14 14 14 12 9 6 8 8 9 11 10 9 8 8 7 6 5 6 7 5 7 7 8 9 8 8 8 6
9 11 14 14 14 9 7 8 7 8 8 4 6 7 9 10 11 9 9 8 9 8 7 7 7 7 7 8 8 9 9 9 8
12 15 17 14 13 9 7 9 6 7 5 5 6 6 7 8 9 9 9 9 9 9 9 9 9 8 8 7 7 7 8 8 8
12 12 14 14 13 15 13 12 11 7 5 5 4 3 4 5 5 6 7 7 8 7 7 8 8 8 8 8 7 8 9 7 7
9 13 10 9 8 12 13 12 11 9 8 6 8 9 5 4 7 5 6 6 7 6 6 6 5 7 8 8 8 9 3 5 7
9 9 11 11 10 9 8 7 10 9 6 5 6 6 5 5 3 4 5 6 6 5 5 4 4 3 5 2 7 16 11 6 9
10 10 9 10 9 9 8 8 9 9 7 8 7 7 7 5 6 5 4 2 6 5 5 4 4 3 8 6 9 13 12 9 11
12 12 11 10 10 10 9 9 8 9 9 9 8 7 8 8 7 6 3 3 3 1 3 4 7 10 9 9 11 17 15 13 4
13 12 11 12 12 11 10 8 9 10 9 7 7 5 9 7 6 7 7 6 4 4 6 7 8 9 9 10 10 19 20 16 4
12 12 13 11 9 10 9 8 8 9 7 6 4 6 8 8 6 7 6 6 6 6 7 8 8 9 10 10 8 14 17 18 6
18 16 12 11 10 8 7 6 6 6 6 7 4 4 6 7 5 4 6 6 6 6 6 7 7 7 7 7 8 12 12 12 10
14 15 11 11 9 8 7 7 6 7 6 5 6 6 6 6 6 5 5 6 6 7 5 4 5 3 3 4 5 5 9 4 7
12 11 10 9 10 8 7 6 7 7 6 5 5 5 5 5 5 5 3 4 3 3 2 4 2 4 3 3 4 6 8 8 8
12 10 9 8 7 7 8 6 6 6 5 5 5 5 4 4 5 4 6 8 9 7 9 9 2 4 4 3 3 6 6 6 7
9 11 8 8 7 7 7 6 6 5 4 4 5 6 5 3 4 4 5 7 8 16 12 13 13 14 13 8 8 6 6 6 10
10 8 6 6 7 6 6 6 6 6 5 5 4 3 4 4 3 3 4 4 6 8 7 9 9 9 10 9 6 8 11 12 12
Wind_Direction
203 193 193 193 184 196 168 190 183 183 178 187 189 196 204 200 211 209 213 220 284 210 172 192 180 182 192 191 193 195 190 208 234
206 205 194 193 200 190 184 189 182 181 177 187 196 197 200 200 204 201 215 247 200 200 187 171 189 191 195 197 200 211 194 230 212
175 202 209 195 197 190 170 196 173 196 173 181 190 208 206 207 205 207 205 205 217 203 199 227 169 194 197 201 202 209 214 202 202
179 195 198 192 190 172 181 161 156 173 168 176 192 204 200 218 209 206 201 223 204 180 176 183 190 199 199 201 200 207 205 242 202
183 184 190 175 164 169 168 174 163 140 171 173 189 193 202 206 215 213 210 220 204 186 169 195 206 194 202 208 207 200 207 221 222
152 160 140 144 152 145 148 163 179 141 167 210 198 185 210 212 213 211 218 208 218 203 193 185 194 198 211 217 211 208 212 215 218
159 166 156 149 137 122 129 148 148 124 113 135 143 166 209 204 221 215 219 210 208 221 216 213 209 211 219 212 214 215 202 208 216
159 162 169 169 171 160 179 164 147 145 151 158 95 161 186 190 207 212 207 203 200 209 216 221 221 218 218 216 212 205 201 205 217
158 161 142 116 145 156 173 161 156 152 163 174 183 188 194 220 197 205 199 190 192 189 207 215 224 228 228 224 237 25 109 265 219
132 119 111 101 99 94 92 104 139 139 133 146 176 144 166 184 189 198 234 190 188 182 197 198 203 214 232 48 37 4 343 262 249
121 116 119 111 109 104 95 95 110 123 122 115 121 149 151 159 138 87 15 227 189 170 188 188 186 180 95 94 54 13 356 309 248
125 116 106 105 99 97 96 92 90 101 103 107 109 118 132 131 131 124 117 137 91 71 142 152 71 50 64 65 40 9 15 340 299
115 113 115 113 109 104 89 78 85 77 76 75 86 136 122 121 142 134 133 134 125 100 81 104 102 94 90 73 54 28 21 6 29
123 119 117 113 108 103 105 107 98 89 86 67 56 109 107 102 108 110 116 117 110 127 130 116 114 108 97 81 41 46 26 17 42
132 128 125 119 116 117 121 124 123 132 113 131 139 100 97 108 104 115 113 105 105 99 111 114 124 138 145 114 92 38 44 20 15
137 138 139 139 132 123 120 112 125 124 114 112 114 119 123 104 103 105 116 122 130 135 135 145 141 136 108 84 76 52 70 35 345
142 138 139 140 139 132 108 103 99 100 106 108 114 113 116 119 120 109 103 105 91 81 104 125 118 124 120 86 37 27 5 355 343
146 144 146 144 132 127 122 122 107 114 127 141 133 132 126 134 124 120 101 57 18 94 52 17 25 32 40 1 49 31 340 331 331
143 148 148 143 134 129 133 143 135 132 144 163 162 155 163 109 138 144 133 130 100 61 68 68 66 50 36 112 68 343 313 327 314
143 137 153 149 141 138 161 163 152 154 156 175 184 148 139 127 201 153 152 156 156 136 102 79 86 80 67 49 12 340 341 338 323